Time,TemperatureF,DewpointF,PressureIn,WindDirection,WindDirectionDegrees,WindSpeedMPH,WindSpeedGustMPH,Humidity,HourlyPrecipIn,Conditions,Clouds,dailyrainin,SoftwareType,DateUTC
2013-07-15 00:01:00,72.5,71.3,30.16,NW,325,0.0,0.0,96,0.00,,CLR,0.00,VWS V13.01,2013-07-15 04:01:00,
2013-07-15 00:03:00,72.4,71.2,30.17,NW,325,0.0,0.0,96,0.00,,CLR,0.00,VWS V13.01,2013-07-15 04:03:00,
2013-07-15 00:08:00,72.3,71.1,30.16,NW,325,0.0,0.0,96,0.00,,CLR,0.00,VWS V13.01,2013-07-15 04:08:00,
2013-07-15 00:13:00,72.3,71.1,30.17,NW,325,0.0,0.0,96,0.00,,CLR,0.00,VWS V13.01,2013-07-15 04:13:00,
2013-07-15 00:18:00,72.3,71.4,30.16,NW,325,0.0,0.0,97,0.00,,CLR,0.00,VWS V13.01,2013-07-15 04:18:00,
2013-07-15 00:23:00,72.4,71.5,30.16,NW,325,0.0,0.0,97,0.00,,CLR,0.00,VWS V13.01,2013-07-15 04:23:00,
2013-07-15 00:28:00,72.5,71.6,30.16,NW,325,0.0,0.0,97,0.00,,CLR,0.00,VWS V13.01,2013-07-15 04:28:00,
2013-07-15 00:33:00,72.5,71.6,30.16,NW,325,0.0,0.0,97,0.00,,CLR,0.00,VWS V13.01,2013-07-15 04:33:00,
2013-07-15 00:38:00,72.5,71.6,30.16,NW,325,0.0,0.0,97,0.00,,CLR,0.00,VWS V13.01,2013-07-15 04:38:00,
2013-07-15 00:43:00,72.5,71.6,30.16,NW,325,0.0,0.0,97,0.00,,CLR,0.00,VWS V13.01,2013-07-15 04:43:00,
2013-07-15 00:48:00,72.4,71.5,30.16,NW,325,0.0,0.0,97,0.00,,BKN090,0.00,VWS V13.01,2013-07-15 04:48:00,
2013-07-15 00:53:00,72.3,71.4,30.16,NW,325,0.0,0.0,97,0.00,,BKN090,0.00,VWS V13.01,2013-07-15 04:53:00,
2013-07-15 00:58:00,72.2,71.0,30.16,NW,325,0.0,0.0,96,0.00,,BKN090,0.00,VWS V13.01,2013-07-15 04:58:00,
2013-07-15 01:03:00,72.1,71.2,30.16,NW,325,0.0,0.0,97,0.00,,BKN090,0.00,VWS V13.01,2013-07-15 05:03:00,
2013-07-15 01:08:00,72.1,71.2,30.15,NW,325,0.0,0.0,97,0.00,,BKN090,0.00,VWS V13.01,2013-07-15 05:08:00,
2013-07-15 01:13:00,72.2,71.6,30.15,NW,325,0.0,0.0,98,0.00,,BKN090,0.00,VWS V13.01,2013-07-15 05:13:00,
2013-07-15 01:18:00,72.2,71.6,30.15,NW,325,0.0,0.0,98,0.00,,BKN090,0.00,VWS V13.01,2013-07-15 05:18:00,
2013-07-15 01:23:00,72.2,71.3,30.15,NW,325,0.0,0.0,97,0.00,,BKN090,0.00,VWS V13.01,2013-07-15 05:23:00,
2013-07-15 01:28:00,72.1,71.2,30.15,NW,325,0.0,0.0,97,0.00,,BKN090,0.00,VWS V13.01,2013-07-15 05:28:00,
2013-07-15 01:33:00,72.0,71.1,30.15,NW,325,0.0,0.0,97,0.00,,BKN090,0.00,VWS V13.01,2013-07-15 05:33:00,
2013-07-15 01:38:00,71.9,71.0,30.15,NW,325,0.0,0.0,97,0.00,,BKN090,0.00,VWS V13.01,2013-07-15 05:38:00,
2013-07-15 01:43:00,71.8,70.9,30.15,NW,325,0.0,0.0,97,0.00,,BKN090,0.00,VWS V13.01,2013-07-15 05:43:00,
2013-07-15 01:48:00,71.8,70.9,30.15,NW,325,0.0,0.0,97,0.00,,BKN085,0.00,VWS V13.01,2013-07-15 05:48:00,
2013-07-15 01:53:00,71.7,70.8,30.15,NW,325,0.0,0.0,97,0.00,,BKN085,0.00,VWS V13.01,2013-07-15 05:53:00,
2013-07-15 01:58:00,71.6,70.7,30.15,NW,325,0.0,0.0,97,0.00,,BKN085,0.00,VWS V13.01,2013-07-15 05:58:00,
2013-07-15 02:04:00,71.5,70.6,30.15,NW,325,0.0,0.0,97,0.00,,BKN085,0.00,VWS V13.01,2013-07-15 06:04:00,
2013-07-15 02:09:00,71.5,70.6,30.15,NW,325,0.0,0.0,97,0.00,,BKN085,0.00,VWS V13.01,2013-07-15 06:09:00,
2013-07-15 02:14:00,71.5,70.6,30.15,NW,325,0.0,0.0,97,0.00,,BKN085,0.00,VWS V13.01,2013-07-15 06:14:00,
2013-07-15 02:19:00,71.5,70.6,30.15,NW,325,0.0,0.0,97,0.00,,BKN085,0.00,VWS V13.01,2013-07-15 06:19:00,
2013-07-15 02:24:00,71.4,70.5,30.15,NW,325,0.0,0.0,97,0.00,,BKN085,0.00,VWS V13.01,2013-07-15 06:24:00,
2013-07-15 02:29:00,71.4,70.5,30.15,NW,325,0.0,0.0,97,0.00,,BKN085,0.00,VWS V13.01,2013-07-15 06:29:00,
2013-07-15 02:34:00,71.3,70.4,30.15,NW,325,0.0,0.0,97,0.00,,BKN085,0.00,VWS V13.01,2013-07-15 06:34:00,
2013-07-15 02:39:00,71.2,70.3,30.15,NW,325,0.0,0.0,97,0.00,,BKN085,0.00,VWS V13.01,2013-07-15 06:39:00,
2013-07-15 02:44:00,71.1,70.2,30.14,NW,325,0.0,0.0,97,0.00,,BKN085,0.00,VWS V13.01,2013-07-15 06:44:00,
2013-07-15 02:49:00,71.0,70.1,30.15,NW,325,0.0,0.0,97,0.00,,CLR,0.00,VWS V13.01,2013-07-15 06:49:00,
2013-07-15 02:54:00,70.9,70.0,30.15,NW,325,0.0,0.0,97,0.00,,CLR,0.00,VWS V13.01,2013-07-15 06:54:00,
2013-07-15 02:59:00,70.8,69.9,30.14,NW,325,0.0,0.0,97,0.00,,CLR,0.00,VWS V13.01,2013-07-15 06:59:00,
2013-07-15 03:04:00,70.8,69.9,30.14,NW,325,0.0,0.0,97,0.00,,CLR,0.00,VWS V13.01,2013-07-15 07:04:00,
2013-07-15 03:09:00,70.7,69.8,30.14,NW,325,0.0,0.0,97,0.00,,CLR,0.00,VWS V13.01,2013-07-15 07:09:00,
2013-07-15 03:14:00,70.6,69.7,30.14,NW,325,0.0,0.0,97,0.00,,CLR,0.00,VWS V13.01,2013-07-15 07:14:00,
2013-07-15 03:19:00,70.4,69.5,30.14,NW,325,0.0,0.0,97,0.00,,CLR,0.00,VWS V13.01,2013-07-15 07:19:00,
2013-07-15 03:24:00,70.3,69.4,30.14,NW,325,0.0,0.0,97,0.00,,CLR,0.00,VWS V13.01,2013-07-15 07:24:00,
2013-07-15 03:29:00,70.2,69.3,30.15,NW,325,0.0,0.0,97,0.00,,CLR,0.00,VWS V13.01,2013-07-15 07:29:00,
2013-07-15 03:34:00,70.1,69.2,30.15,NW,325,0.0,0.0,97,0.00,,CLR,0.00,VWS V13.01,2013-07-15 07:34:00,
2013-07-15 03:39:00,70.1,69.2,30.15,NW,325,0.0,0.0,97,0.00,,CLR,0.00,VWS V13.01,2013-07-15 07:39:00,
2013-07-15 03:44:00,70.1,69.2,30.15,NW,325,0.0,0.0,97,0.00,,CLR,0.00,VWS V13.01,2013-07-15 07:44:00,
2013-07-15 03:49:00,70.0,69.4,30.15,NW,325,0.0,0.0,98,0.00,,,0.00,VWS V13.01,2013-07-15 07:49:00,
2013-07-15 03:54:00,70.0,69.4,30.15,NW,325,0.0,0.0,98,0.00,,,0.00,VWS V13.01,2013-07-15 07:54:00,
2013-07-15 03:59:00,69.9,69.3,30.15,NW,325,0.0,0.0,98,0.00,,,0.00,VWS V13.01,2013-07-15 07:59:00,
2013-07-15 04:04:00,69.9,69.3,30.15,NW,325,0.0,0.0,98,0.00,,,0.00,VWS V13.01,2013-07-15 08:04:00,
2013-07-15 04:09:00,69.7,68.8,30.15,NW,325,0.0,0.0,97,0.00,,,0.00,VWS V13.01,2013-07-15 08:09:00,
2013-07-15 04:14:00,69.6,69.0,30.15,NW,325,0.0,0.0,98,0.00,,,0.00,VWS V13.01,2013-07-15 08:14:00,
2013-07-15 04:19:00,69.6,69.0,30.15,NW,325,0.0,0.0,98,0.00,,,0.00,VWS V13.01,2013-07-15 08:19:00,
2013-07-15 04:25:00,69.6,69.0,30.15,NW,325,0.0,0.0,98,0.00,,,0.00,VWS V13.01,2013-07-15 08:25:00,
2013-07-15 04:30:00,69.7,69.1,30.15,NW,325,0.0,0.0,98,0.00,,,0.00,VWS V13.01,2013-07-15 08:30:00,
2013-07-15 04:35:00,69.7,69.1,30.15,NW,325,0.0,0.0,98,0.00,,,0.00,VWS V13.01,2013-07-15 08:35:00,
2013-07-15 04:40:00,69.8,69.5,30.15,NW,325,0.0,0.0,99,0.00,,,0.00,VWS V13.01,2013-07-15 08:40:00,
2013-07-15 04:45:00,69.9,69.6,30.15,NW,325,0.0,0.0,99,0.00,,,0.00,VWS V13.01,2013-07-15 08:45:00,
2013-07-15 04:50:00,70.0,69.7,30.15,NW,325,0.0,0.0,99,0.00,,,0.00,VWS V13.01,2013-07-15 08:50:00,
2013-07-15 04:55:00,70.0,69.7,30.15,NW,325,0.0,0.0,99,0.00,,,0.00,VWS V13.01,2013-07-15 08:55:00,
2013-07-15 05:00:00,70.1,69.8,30.15,NW,325,0.0,0.0,99,0.00,,,0.00,VWS V13.01,2013-07-15 09:00:00,
2013-07-15 05:05:00,70.1,69.8,30.15,NW,325,0.0,0.0,99,0.00,,,0.00,VWS V13.01,2013-07-15 09:05:00,
2013-07-15 05:10:00,70.1,69.8,30.15,NW,325,0.0,0.0,99,0.00,,,0.00,VWS V13.01,2013-07-15 09:10:00,
2013-07-15 05:15:00,70.0,69.4,30.15,NW,325,0.0,0.0,98,0.00,,,0.00,VWS V13.01,2013-07-15 09:15:00,
2013-07-15 05:20:00,69.9,69.3,30.15,NW,325,0.0,0.0,98,0.00,,,0.00,VWS V13.01,2013-07-15 09:20:00,
2013-07-15 05:25:00,69.8,69.2,30.15,NW,325,0.0,0.0,98,0.00,,,0.00,VWS V13.01,2013-07-15 09:25:00,
2013-07-15 05:30:00,69.7,69.1,30.15,NW,325,0.0,0.0,98,0.00,,,0.00,VWS V13.01,2013-07-15 09:30:00,
2013-07-15 05:35:00,69.6,68.7,30.15,NW,325,0.0,0.0,97,0.00,,,0.00,VWS V13.01,2013-07-15 09:35:00,
2013-07-15 05:40:00,69.4,68.8,30.15,NW,325,0.0,0.0,98,0.00,,,0.00,VWS V13.01,2013-07-15 09:40:00,
2013-07-15 05:45:00,69.4,68.8,30.15,NW,325,0.0,0.0,98,0.00,,CLR,0.00,VWS V13.01,2013-07-15 09:45:00,
2013-07-15 05:50:00,69.4,68.8,30.15,NW,325,0.0,0.0,98,0.00,,CLR,0.00,VWS V13.01,2013-07-15 09:50:00,
2013-07-15 05:55:00,69.5,68.9,30.15,NW,325,0.0,0.0,98,0.00,,CLR,0.00,VWS V13.01,2013-07-15 09:55:00,
2013-07-15 06:00:00,69.5,68.9,30.15,NW,325,0.0,0.0,98,0.00,,CLR,0.00,VWS V13.01,2013-07-15 10:00:00,
2013-07-15 06:05:00,69.5,68.9,30.15,NW,325,0.0,0.0,98,0.00,,CLR,0.00,VWS V13.01,2013-07-15 10:05:00,
2013-07-15 06:10:00,69.5,68.9,30.15,NW,325,0.0,0.0,98,0.00,,CLR,0.00,VWS V13.01,2013-07-15 10:10:00,
2013-07-15 06:15:00,69.6,69.3,30.15,NW,325,0.0,0.0,99,0.00,,,0.00,VWS V13.01,2013-07-15 10:15:00,
2013-07-15 06:20:00,69.7,69.4,30.16,NW,325,0.0,0.0,99,0.00,,,0.00,VWS V13.01,2013-07-15 10:20:00,
2013-07-15 06:25:00,69.9,69.6,30.15,NW,325,0.0,0.0,99,0.00,,,0.00,VWS V13.01,2013-07-15 10:25:00,
2013-07-15 06:30:00,69.9,69.6,30.16,NW,325,0.0,0.0,99,0.00,,CLR,0.00,VWS V13.01,2013-07-15 10:30:00,
2013-07-15 06:35:00,69.8,69.8,30.16,NW,325,0.0,0.0,100,0.00,,CLR,0.00,VWS V13.01,2013-07-15 10:35:00,
2013-07-15 06:40:00,69.8,69.2,30.16,NW,325,0.0,0.0,98,0.00,,CLR,0.00,VWS V13.01,2013-07-15 10:40:00,
2013-07-15 06:46:00,69.9,69.6,30.16,NW,325,0.0,0.0,99,0.00,,CLR,0.00,VWS V13.01,2013-07-15 10:46:00,
2013-07-15 06:51:00,70.0,69.7,30.16,NW,325,0.0,0.0,99,0.00,,CLR,0.00,VWS V13.01,2013-07-15 10:51:00,
2013-07-15 06:56:00,70.0,69.7,30.16,NW,325,0.0,0.0,99,0.00,,CLR,0.00,VWS V13.01,2013-07-15 10:56:00,
2013-07-15 07:01:00,69.9,69.6,30.16,NW,325,0.0,0.0,99,0.00,,CLR,0.00,VWS V13.01,2013-07-15 11:01:00,
2013-07-15 07:06:00,70.0,69.7,30.16,NW,325,0.0,0.0,99,0.00,,CLR,0.00,VWS V13.01,2013-07-15 11:06:00,
2013-07-15 07:11:00,70.0,69.7,30.16,NW,325,0.0,0.0,99,0.00,,CLR,0.00,VWS V13.01,2013-07-15 11:11:00,
2013-07-15 07:16:00,70.1,69.8,30.16,NW,325,0.0,0.0,99,0.00,,CLR,0.00,VWS V13.01,2013-07-15 11:16:00,
2013-07-15 07:21:00,70.2,69.9,30.16,NW,325,0.0,0.0,99,0.00,,CLR,0.00,VWS V13.01,2013-07-15 11:21:00,
2013-07-15 07:26:00,70.3,70.0,30.16,NW,325,0.0,0.0,99,0.00,,CLR,0.00,VWS V13.01,2013-07-15 11:26:00,
2013-07-15 07:31:00,70.5,70.2,30.16,NW,325,0.0,0.0,99,0.00,,CLR,0.00,VWS V13.01,2013-07-15 11:31:00,
2013-07-15 07:36:00,70.9,70.6,30.16,NW,325,0.0,1.0,99,0.00,,CLR,0.00,VWS V13.01,2013-07-15 11:36:00,
2013-07-15 07:41:00,71.4,71.4,30.16,NW,325,0.0,1.0,100,0.00,,CLR,0.00,VWS V13.01,2013-07-15 11:41:00,
2013-07-15 07:46:00,71.8,71.5,30.16,NW,325,0.0,1.0,99,0.00,,CLR,0.00,VWS V13.01,2013-07-15 11:46:00,
2013-07-15 07:51:00,72.2,71.9,30.16,NW,308,0.0,3.0,99,0.00,,CLR,0.00,VWS V13.01,2013-07-15 11:51:00,
2013-07-15 07:56:00,72.6,72.6,30.16,NNW,332,0.0,3.0,100,0.00,,CLR,0.00,VWS V13.01,2013-07-15 11:56:00,
2013-07-15 08:01:00,72.9,72.9,30.16,NW,315,0.0,3.0,100,0.00,,CLR,0.00,VWS V13.01,2013-07-15 12:01:00,
2013-07-15 08:06:00,73.2,73.2,30.16,NW,315,0.0,1.0,100,0.00,,CLR,0.00,VWS V13.01,2013-07-15 12:06:00,
2013-07-15 08:11:00,73.4,73.4,30.16,NW,315,0.0,2.0,100,0.00,,CLR,0.00,VWS V13.01,2013-07-15 12:11:00,
2013-07-15 08:16:00,73.6,73.3,30.16,NW,315,0.0,2.0,99,0.00,,CLR,0.00,VWS V13.01,2013-07-15 12:16:00,
2013-07-15 08:21:00,73.9,73.3,30.16,NW,315,0.0,2.0,98,0.00,,CLR,0.00,VWS V13.01,2013-07-15 12:21:00,
2013-07-15 08:26:00,74.3,73.4,30.16,NW,315,0.0,2.0,97,0.00,,CLR,0.00,VWS V13.01,2013-07-15 12:26:00,
2013-07-15 08:31:00,74.6,73.7,30.16,NW,315,0.0,0.0,97,0.00,,CLR,0.00,VWS V13.01,2013-07-15 12:31:00,
2013-07-15 08:36:00,74.9,73.7,30.16,NW,315,0.0,1.0,96,0.00,,CLR,0.00,VWS V13.01,2013-07-15 12:36:00,
2013-07-15 08:41:00,75.3,74.1,30.16,NW,315,0.0,2.0,96,0.00,,CLR,0.00,VWS V13.01,2013-07-15 12:41:00,
2013-07-15 08:46:00,75.7,73.8,30.16,NW,323,0.0,3.0,94,0.00,,CLR,0.00,VWS V13.01,2013-07-15 12:46:00,
2013-07-15 08:52:00,76.2,74.0,30.16,NNE,17,1.0,4.0,93,0.00,,CLR,0.00,VWS V13.01,2013-07-15 12:52:00,
2013-07-15 08:57:00,76.9,73.8,30.16,NNW,327,0.0,5.0,90,0.00,,CLR,0.00,VWS V13.01,2013-07-15 12:57:00,
2013-07-15 09:02:00,77.9,74.1,30.15,NNW,329,1.0,1.0,88,0.00,,CLR,0.00,VWS V13.01,2013-07-15 13:02:00,
2013-07-15 09:07:00,79.2,75.3,30.15,NW,315,0.0,3.0,88,0.00,,CLR,0.00,VWS V13.01,2013-07-15 13:07:00,
2013-07-15 09:12:00,80.6,75.0,30.15,NW,316,0.0,6.0,83,0.00,,CLR,0.00,VWS V13.01,2013-07-15 13:12:00,
2013-07-15 09:17:00,81.9,75.5,30.15,NNW,332,0.0,6.0,81,0.00,,CLR,0.00,VWS V13.01,2013-07-15 13:17:00,
2013-07-15 09:22:00,83.2,76.0,30.15,NNW,338,0.0,6.0,79,0.00,,CLR,0.00,VWS V13.01,2013-07-15 13:22:00,
2013-07-15 09:27:00,84.2,76.2,30.15,NNW,336,0.0,6.0,77,0.00,,CLR,0.00,VWS V13.01,2013-07-15 13:27:00,
2013-07-15 09:32:00,85.1,76.3,30.15,NNW,335,0.0,1.0,75,0.00,,CLR,0.00,VWS V13.01,2013-07-15 13:32:00,
2013-07-15 09:37:00,85.7,75.6,30.15,NNW,338,0.0,4.0,72,0.00,,CLR,0.00,VWS V13.01,2013-07-15 13:37:00,
2013-07-15 09:42:00,85.7,75.6,30.15,NNW,338,0.0,4.0,72,0.00,,CLR,0.00,VWS V13.01,2013-07-15 13:42:00,
2013-07-15 09:47:00,86.0,76.8,30.15,NNW,338,1.0,4.0,74,0.00,,CLR,0.00,VWS V13.01,2013-07-15 13:47:00,
2013-07-15 09:52:00,86.1,76.0,30.15,NNW,348,0.0,4.0,72,0.00,,CLR,0.00,VWS V13.01,2013-07-15 13:52:00,
2013-07-15 09:57:00,86.3,77.0,30.15,NNW,348,1.0,4.0,74,0.00,,CLR,0.00,VWS V13.01,2013-07-15 13:57:00,
2013-07-15 10:02:00,86.8,76.3,30.15,NNW,348,0.0,1.0,71,0.00,,CLR,0.00,VWS V13.01,2013-07-15 14:02:00,
2013-07-15 10:07:00,87.3,75.0,30.15,SSW,211,0.0,1.0,67,0.00,,CLR,0.00,VWS V13.01,2013-07-15 14:07:00,
2013-07-15 10:12:00,87.6,75.7,30.15,SW,218,0.0,1.0,68,0.00,,CLR,0.00,VWS V13.01,2013-07-15 14:12:00,
2013-07-15 10:17:00,87.8,77.2,30.14,SW,227,0.0,1.0,71,0.00,,CLR,0.00,VWS V13.01,2013-07-15 14:17:00,
2013-07-15 10:22:00,87.9,76.5,30.14,SW,227,0.0,1.0,69,0.00,,CLR,0.00,VWS V13.01,2013-07-15 14:22:00,
2013-07-15 10:27:00,88.3,76.4,30.14,NW,319,1.0,1.0,68,0.00,,CLR,0.00,VWS V13.01,2013-07-15 14:27:00,
2013-07-15 10:32:00,88.6,76.2,30.14,WNW,299,0.0,1.0,67,0.00,,CLR,0.00,VWS V13.01,2013-07-15 14:32:00,
2013-07-15 10:37:00,88.9,75.2,30.14,NW,320,0.0,4.0,64,0.00,,CLR,0.00,VWS V13.01,2013-07-15 14:37:00,
2013-07-15 10:42:00,89.2,74.0,30.14,NW,319,0.0,4.0,61,0.00,,CLR,0.00,VWS V13.01,2013-07-15 14:42:00,
2013-07-15 10:47:00,89.4,75.2,30.14,NW,319,0.0,4.0,63,0.00,,BKN060,0.00,VWS V13.01,2013-07-15 14:47:00,
2013-07-15 10:53:00,89.3,74.6,30.14,WNW,294,0.0,4.0,62,0.00,,BKN060,0.00,VWS V13.01,2013-07-15 14:53:00,
2013-07-15 10:58:00,89.3,74.6,30.14,WNW,294,0.0,4.0,62,0.00,,BKN060,0.00,VWS V13.01,2013-07-15 14:58:00,
2013-07-15 11:03:00,89.3,75.1,30.14,WNW,294,0.0,1.0,63,0.00,,BKN060,0.00,VWS V13.01,2013-07-15 15:03:00,
2013-07-15 11:09:00,89.6,74.4,30.14,NW,307,2.0,2.0,61,0.00,,BKN060,0.00,VWS V13.01,2013-07-15 15:09:00,
2013-07-15 11:14:00,90.0,74.8,30.14,NW,319,0.0,2.0,61,0.00,,BKN060,0.00,VWS V13.01,2013-07-15 15:14:00,
2013-07-15 11:19:00,90.0,75.2,30.14,NW,311,1.0,4.0,62,0.00,,BKN060,0.00,VWS V13.01,2013-07-15 15:19:00,
2013-07-15 11:26:00,90.3,75.0,30.13,NW,314,0.0,4.0,61,0.00,,BKN060,0.00,VWS V13.01,2013-07-15 15:26:00,
2013-07-15 11:31:00,90.2,74.9,30.13,NW,313,0.0,4.0,61,0.00,,BKN060,0.00,VWS V13.01,2013-07-15 15:31:00,
2013-07-15 11:36:00,89.9,74.7,30.13,NNW,340,0.0,5.0,61,0.00,,BKN060,0.00,VWS V13.01,2013-07-15 15:36:00,
2013-07-15 11:41:00,89.6,75.8,30.13,NNW,340,0.0,5.0,64,0.00,,BKN060,0.00,VWS V13.01,2013-07-15 15:41:00,
2013-07-15 11:48:00,90.0,74.8,30.13,North,355,0.0,5.0,61,0.00,,CLR,0.00,VWS V13.01,2013-07-15 15:48:00,
2013-07-15 11:53:00,90.7,75.4,30.13,North,355,0.0,5.0,61,0.00,,CLR,0.00,VWS V13.01,2013-07-15 15:53:00,
2013-07-15 11:58:00,90.9,76.6,30.13,NNW,331,0.0,5.0,63,0.00,,CLR,0.00,VWS V13.01,2013-07-15 15:58:00,
2013-07-15 12:03:00,91.0,74.2,30.13,NW,315,2.0,4.0,58,0.00,,CLR,0.00,VWS V13.01,2013-07-15 16:03:00,
2013-07-15 12:08:00,90.8,74.5,30.12,NW,319,0.0,4.0,59,0.00,,CLR,0.00,VWS V13.01,2013-07-15 16:08:00,
2013-07-15 12:14:00,90.5,74.2,30.12,NW,319,0.0,4.0,59,0.00,,CLR,0.00,VWS V13.01,2013-07-15 16:14:00,
2013-07-15 12:19:00,90.4,74.1,30.12,NNW,337,0.0,4.0,59,0.00,,CLR,0.00,VWS V13.01,2013-07-15 16:19:00,
2013-07-15 12:24:00,90.4,74.6,30.12,NNW,333,0.0,5.0,60,0.00,,CLR,0.00,VWS V13.01,2013-07-15 16:24:00,
2013-07-15 12:30:00,90.8,76.0,30.12,North,355,0.0,5.0,62,0.00,,CLR,0.00,VWS V13.01,2013-07-15 16:30:00,
2013-07-15 12:35:00,91.3,76.0,30.12,NW,314,1.0,1.0,61,0.00,,CLR,0.00,VWS V13.01,2013-07-15 16:35:00,
2013-07-15 12:40:00,91.6,74.2,30.12,North,360,0.0,7.0,57,0.00,,CLR,0.00,VWS V13.01,2013-07-15 16:40:00,
2013-07-15 12:45:00,91.7,74.3,30.12,North,355,0.0,7.0,57,0.00,,CLR,0.00,VWS V13.01,2013-07-15 16:45:00,
2013-07-15 12:50:00,91.7,75.3,30.12,North,355,0.0,7.0,59,0.00,,CLR,0.00,VWS V13.01,2013-07-15 16:50:00,
2013-07-15 12:55:00,91.4,74.6,30.12,NW,306,0.0,7.0,58,0.00,,CLR,0.00,VWS V13.01,2013-07-15 16:55:00,
2013-07-15 13:01:00,91.1,73.2,30.12,NW,307,0.0,7.0,56,0.00,,CLR,0.00,VWS V13.01,2013-07-15 17:01:00,
2013-07-15 13:06:00,90.7,75.4,30.11,NW,306,0.0,5.0,61,0.00,,CLR,0.00,VWS V13.01,2013-07-15 17:06:00,
2013-07-15 13:12:00,90.6,76.3,30.11,North,9,0.0,5.0,63,0.00,,CLR,0.00,VWS V13.01,2013-07-15 17:12:00,
2013-07-15 13:17:00,91.1,74.3,30.11,NNW,344,1.0,5.0,58,0.00,,CLR,0.00,VWS V13.01,2013-07-15 17:17:00,
2013-07-15 13:22:00,91.3,75.5,30.11,NW,315,0.0,5.0,60,0.00,,CLR,0.00,VWS V13.01,2013-07-15 17:22:00,
2013-07-15 13:27:00,91.4,75.6,30.11,NW,315,0.0,5.0,60,0.00,,CLR,0.00,VWS V13.01,2013-07-15 17:27:00,
2013-07-15 13:32:00,90.9,75.1,30.11,NNE,24,0.0,1.0,60,0.00,,CLR,0.00,VWS V13.01,2013-07-15 17:32:00,
2013-07-15 13:37:00,90.9,76.1,30.11,NW,324,0.0,6.0,62,0.00,,CLR,0.00,VWS V13.01,2013-07-15 17:37:00,
2013-07-15 13:42:00,91.4,75.1,30.11,NW,324,0.0,6.0,59,0.00,,CLR,0.00,VWS V13.01,2013-07-15 17:42:00,
2013-07-15 13:47:00,91.9,74.0,30.11,NW,324,0.0,6.0,56,0.00,,SCT065,0.00,VWS V13.01,2013-07-15 17:47:00,
2013-07-15 13:52:00,92.2,74.2,30.10,NW,315,1.0,6.0,56,0.00,,SCT065,0.00,VWS V13.01,2013-07-15 17:52:00,
2013-07-15 13:58:00,92.6,74.1,30.10,WNW,292,3.0,6.0,55,0.00,,SCT065,0.00,VWS V13.01,2013-07-15 17:58:00,
2013-07-15 14:03:00,93.1,74.0,30.10,NW,321,0.0,6.0,54,0.00,,SCT065,0.00,VWS V13.01,2013-07-15 18:03:00,
2013-07-15 14:08:00,93.7,75.1,30.10,NW,326,5.0,6.0,55,0.00,,SCT065,0.00,VWS V13.01,2013-07-15 18:08:00,
2013-07-15 14:13:00,94.2,74.5,30.10,West,263,0.0,6.0,53,0.00,,SCT065,0.00,VWS V13.01,2013-07-15 18:13:00,
2013-07-15 14:19:00,94.6,73.1,30.10,NW,311,0.0,7.0,50,0.00,,SCT065,0.00,VWS V13.01,2013-07-15 18:19:00,
2013-07-15 14:24:00,94.5,74.2,30.10,NNW,346,0.0,7.0,52,0.00,,SCT065,0.00,VWS V13.01,2013-07-15 18:24:00,
2013-07-15 14:29:00,94.3,72.2,30.10,NNW,330,0.0,7.0,49,0.00,,SCT065,0.00,VWS V13.01,2013-07-15 18:29:00,
2013-07-15 14:34:00,93.9,73.0,30.10,NW,321,1.0,4.0,51,0.00,,SCT065,0.00,VWS V13.01,2013-07-15 18:34:00,
2013-07-15 14:39:00,93.3,73.1,30.10,NW,309,0.0,6.0,52,0.00,,SCT065,0.00,VWS V13.01,2013-07-15 18:39:00,
2013-07-15 14:44:00,93.3,74.2,30.09,NW,306,0.0,6.0,54,0.00,,SCT065,0.00,VWS V13.01,2013-07-15 18:44:00,
2013-07-15 14:49:00,93.7,74.6,30.09,NNW,327,1.0,6.0,54,0.00,,FEW047,0.00,VWS V13.01,2013-07-15 18:49:00,
2013-07-15 14:54:00,94.1,74.9,30.09,NW,323,1.0,6.0,54,0.00,,FEW047,0.00,VWS V13.01,2013-07-15 18:54:00,
2013-07-15 14:59:00,93.8,72.9,30.09,NW,306,0.0,6.0,51,0.00,,FEW047,0.00,VWS V13.01,2013-07-15 18:59:00,
2013-07-15 15:04:00,93.1,72.9,30.09,NW,325,0.0,2.0,52,0.00,,FEW047,0.00,VWS V13.01,2013-07-15 19:04:00,
2013-07-15 15:09:00,92.6,75.2,30.09,NW,325,0.0,2.0,57,0.00,,FEW047,0.00,VWS V13.01,2013-07-15 19:09:00,
2013-07-15 15:14:00,92.0,73.5,30.09,NW,306,1.0,5.0,55,0.00,,FEW047,0.00,VWS V13.01,2013-07-15 19:14:00,
2013-07-15 15:20:00,91.4,73.5,30.09,NW,306,0.0,5.0,56,0.00,,FEW047,0.00,VWS V13.01,2013-07-15 19:20:00,
2013-07-15 15:25:00,90.8,72.9,30.09,NNW,331,0.0,5.0,56,0.00,,FEW047,0.00,VWS V13.01,2013-07-15 19:25:00,
2013-07-15 15:30:00,90.5,72.1,30.09,WNW,288,0.0,5.0,55,0.00,,FEW047,0.00,VWS V13.01,2013-07-15 19:30:00,
2013-07-15 15:35:00,90.2,74.4,30.09,WNW,288,0.0,0.0,60,0.00,,FEW047,0.00,VWS V13.01,2013-07-15 19:35:00,
2013-07-15 15:40:00,89.9,74.7,30.09,WNW,288,0.0,1.0,61,0.00,,FEW047,0.00,VWS V13.01,2013-07-15 19:40:00,
2013-07-15 15:45:00,89.4,75.2,30.08,WNW,288,0.0,1.0,63,0.00,,FEW047,0.00,VWS V13.01,2013-07-15 19:45:00,
2013-07-15 15:50:00,88.9,75.2,30.09,WNW,288,0.0,1.0,64,0.00,,BKN065,0.00,VWS V13.01,2013-07-15 19:50:00,
2013-07-15 15:55:00,88.2,76.3,30.08,WNW,288,0.0,1.0,68,0.00,,BKN065,0.00,VWS V13.01,2013-07-15 19:55:00,
2013-07-15 16:00:00,87.8,75.0,30.08,WNW,288,0.0,1.0,66,0.00,,BKN065,0.00,VWS V13.01,2013-07-15 20:00:00,
2013-07-15 16:05:00,87.4,74.7,30.08,WNW,288,0.0,1.0,66,0.00,,BKN065,0.00,VWS V13.01,2013-07-15 20:05:00,
2013-07-15 16:11:00,87.1,76.1,30.08,WNW,288,0.0,1.0,70,0.00,,BKN065,0.00,VWS V13.01,2013-07-15 20:11:00,
2013-07-15 16:16:00,86.9,75.1,30.08,WNW,290,0.0,2.0,68,0.00,,BKN065,0.00,VWS V13.01,2013-07-15 20:16:00,
2013-07-15 16:22:00,86.7,74.9,30.08,WNW,296,0.0,2.0,68,0.00,,BKN065,0.00,VWS V13.01,2013-07-15 20:22:00,
2013-07-15 16:27:00,86.6,76.1,30.08,WNW,296,0.0,2.0,71,0.00,,BKN065,0.00,VWS V13.01,2013-07-15 20:27:00,
2013-07-15 16:32:00,86.5,76.8,30.08,WNW,296,0.0,0.0,73,0.00,,BKN065,0.00,VWS V13.01,2013-07-15 20:32:00,
2013-07-15 16:38:00,86.1,76.4,30.08,WNW,296,0.0,0.0,73,0.00,,BKN065,0.00,VWS V13.01,2013-07-15 20:38:00,
2013-07-15 16:43:00,86.0,75.9,30.08,WNW,296,0.0,0.0,72,0.00,,BKN065,0.00,VWS V13.01,2013-07-15 20:43:00,
2013-07-15 16:48:00,85.7,76.1,30.08,WNW,296,0.0,0.0,73,0.00,,CLR,0.00,VWS V13.01,2013-07-15 20:48:00,
2013-07-15 16:53:00,85.5,76.3,30.07,WNW,296,0.0,0.0,74,0.00,,CLR,0.00,VWS V13.01,2013-07-15 20:53:00,
2013-07-15 16:59:00,85.4,74.9,30.07,WNW,296,0.0,2.0,71,0.00,,CLR,0.00,VWS V13.01,2013-07-15 20:59:00,
2013-07-15 17:04:00,85.4,76.2,30.07,WNW,296,0.0,0.0,74,0.00,,CLR,0.00,VWS V13.01,2013-07-15 21:04:00,
2013-07-15 17:09:00,85.5,76.3,30.07,WNW,296,0.0,0.0,74,0.00,,CLR,0.00,VWS V13.01,2013-07-15 21:09:00,
2013-07-15 17:14:00,85.7,73.0,30.07,WNW,296,0.0,1.0,66,0.00,,CLR,0.00,VWS V13.01,2013-07-15 21:14:00,
2013-07-15 17:19:00,86.2,74.8,30.07,North,355,0.0,4.0,69,0.00,,CLR,0.00,VWS V13.01,2013-07-15 21:19:00,
2013-07-15 17:24:00,86.6,73.0,30.06,NNW,331,0.0,4.0,64,0.00,,CLR,0.00,VWS V13.01,2013-07-15 21:24:00,
2013-07-15 17:29:00,87.1,73.4,30.06,NNW,327,0.0,4.0,64,0.00,,CLR,0.00,VWS V13.01,2013-07-15 21:29:00,
2013-07-15 17:34:00,87.5,72.9,30.06,NW,317,0.0,1.0,62,0.00,,CLR,0.00,VWS V13.01,2013-07-15 21:34:00,
2013-07-15 17:39:00,87.7,72.1,30.06,NW,317,0.0,1.0,60,0.00,,CLR,0.00,VWS V13.01,2013-07-15 21:39:00,
2013-07-15 17:44:00,87.9,73.3,30.06,NW,317,0.0,1.0,62,0.00,,CLR,0.00,VWS V13.01,2013-07-15 21:44:00,
2013-07-15 17:50:00,88.0,73.8,30.05,NW,317,0.0,1.0,63,0.00,,CLR,0.00,VWS V13.01,2013-07-15 21:50:00,
2013-07-15 17:55:00,87.9,71.8,30.05,NW,317,1.0,1.0,59,0.00,,CLR,0.00,VWS V13.01,2013-07-15 21:55:00,
2013-07-15 18:00:00,87.9,71.8,30.05,NW,317,0.0,1.0,59,0.00,,CLR,0.00,VWS V13.01,2013-07-15 22:00:00,
2013-07-15 18:05:00,87.8,73.2,30.05,NW,317,0.0,0.0,62,0.00,,CLR,0.00,VWS V13.01,2013-07-15 22:05:00,
2013-07-15 18:10:00,87.4,74.2,30.06,NW,317,0.0,0.0,65,0.00,,CLR,0.00,VWS V13.01,2013-07-15 22:10:00,
2013-07-15 18:15:00,86.9,74.2,30.05,NW,317,0.0,0.0,66,0.00,,CLR,0.00,VWS V13.01,2013-07-15 22:15:00,
2013-07-15 18:20:00,86.5,74.2,30.06,NW,317,0.0,0.0,67,0.00,,CLR,0.00,VWS V13.01,2013-07-15 22:20:00,
2013-07-15 18:25:00,86.1,74.8,30.06,NW,317,0.0,0.0,69,0.00,,CLR,0.00,VWS V13.01,2013-07-15 22:25:00,
2013-07-15 18:31:00,85.5,74.6,30.06,NW,317,0.0,0.0,70,0.00,,CLR,0.00,VWS V13.01,2013-07-15 22:31:00,
2013-07-15 18:36:00,85.2,74.7,30.06,NW,317,0.0,0.0,71,0.00,,CLR,0.00,VWS V13.01,2013-07-15 22:36:00,
2013-07-15 18:41:00,84.9,74.0,30.06,NW,317,0.0,0.0,70,0.00,,CLR,0.00,VWS V13.01,2013-07-15 22:41:00,
2013-07-15 18:46:00,84.7,74.3,30.05,NW,317,0.0,0.0,71,0.00,,CLR,0.00,VWS V13.01,2013-07-15 22:46:00,
2013-07-15 18:53:00,84.4,74.8,30.06,NW,317,0.0,0.0,73,0.00,,CLR,0.00,VWS V13.01,2013-07-15 22:53:00,
2013-07-15 18:58:00,84.2,74.2,30.05,NW,317,0.0,0.0,72,0.00,,CLR,0.00,VWS V13.01,2013-07-15 22:58:00,
2013-07-15 19:05:00,84.1,73.7,30.05,North,0,0.0,0.0,71,0.00,,CLR,0.00,VWS V13.01,2013-07-15 23:05:00,
2013-07-15 19:10:00,83.8,74.6,30.05,NW,317,0.0,0.0,74,0.00,,CLR,0.00,VWS V13.01,2013-07-15 23:10:00,
2013-07-15 19:15:00,83.6,75.2,30.05,NW,317,0.0,0.0,76,0.00,,CLR,0.00,VWS V13.01,2013-07-15 23:15:00,
2013-07-15 19:20:00,83.4,75.4,30.06,NW,317,0.0,0.0,77,0.00,,CLR,0.00,VWS V13.01,2013-07-15 23:20:00,
2013-07-15 19:25:00,83.2,75.2,30.06,NW,317,0.0,0.0,77,0.00,,CLR,0.00,VWS V13.01,2013-07-15 23:25:00,
2013-07-15 19:30:00,83.0,75.8,30.06,NW,317,0.0,0.0,79,0.00,,CLR,0.00,VWS V13.01,2013-07-15 23:30:00,
2013-07-15 19:35:00,82.8,75.6,30.06,NW,317,0.0,0.0,79,0.00,,CLR,0.00,VWS V13.01,2013-07-15 23:35:00,
2013-07-15 19:41:00,82.6,75.4,30.06,NW,317,0.0,0.0,79,0.00,,CLR,0.00,VWS V13.01,2013-07-15 23:41:00,
2013-07-15 19:46:00,82.4,75.2,30.06,NW,317,0.0,0.0,79,0.00,,SCT200,0.00,VWS V13.01,2013-07-15 23:46:00,
2013-07-15 19:51:00,82.1,74.6,30.06,NW,317,0.0,0.0,78,0.00,,SCT200,0.00,VWS V13.01,2013-07-15 23:51:00,
2013-07-15 19:56:00,81.9,74.8,30.05,NW,317,0.0,0.0,79,0.00,,SCT200,0.00,VWS V13.01,2013-07-15 23:56:00,
2013-07-15 20:01:00,81.6,74.5,30.06,NW,317,0.0,0.0,79,0.00,,SCT200,0.00,VWS V13.01,2013-07-16 00:01:00,
2013-07-15 20:07:00,81.3,74.5,30.06,NW,317,0.0,0.0,80,0.00,,SCT200,0.00,VWS V13.01,2013-07-16 00:07:00,
2013-07-15 20:12:00,81.0,74.2,30.06,NW,317,0.0,0.0,80,0.00,,SCT200,0.00,VWS V13.01,2013-07-16 00:12:00,
2013-07-15 20:17:00,80.7,74.0,30.06,NW,317,0.0,0.0,80,0.00,,SCT200,0.00,VWS V13.01,2013-07-16 00:17:00,
2013-07-15 20:22:00,80.5,74.1,30.06,NW,317,0.0,0.0,81,0.00,,SCT200,0.00,VWS V13.01,2013-07-16 00:22:00,
2013-07-15 20:27:00,80.2,73.8,30.06,NW,317,0.0,0.0,81,0.00,,SCT200,0.00,VWS V13.01,2013-07-16 00:27:00,
2013-07-15 20:32:00,80.0,74.0,30.07,NW,317,0.0,0.0,82,0.00,,CLR,0.00,VWS V13.01,2013-07-16 00:32:00,
2013-07-15 20:37:00,79.7,73.7,30.07,NW,317,0.0,0.0,82,0.00,,CLR,0.00,VWS V13.01,2013-07-16 00:37:00,
2013-07-15 20:42:00,79.5,73.5,30.07,NW,317,0.0,0.0,82,0.00,,CLR,0.00,VWS V13.01,2013-07-16 00:42:00,
2013-07-15 20:47:00,79.2,73.6,30.07,NW,317,0.0,0.0,83,0.00,,CLR,0.00,VWS V13.01,2013-07-16 00:47:00,
2013-07-15 20:53:00,79.0,74.1,30.07,NW,317,0.0,0.0,85,0.00,,CLR,0.00,VWS V13.01,2013-07-16 00:53:00,
2013-07-15 20:58:00,78.7,74.2,30.07,NW,317,0.0,0.0,86,0.00,,CLR,0.00,VWS V13.01,2013-07-16 00:58:00,
2013-07-15 21:03:00,78.4,73.9,30.07,NW,317,0.0,0.0,86,0.00,,CLR,0.00,VWS V13.01,2013-07-16 01:03:00,
2013-07-15 21:08:00,78.1,73.9,30.07,NW,317,0.0,0.0,87,0.00,,CLR,0.00,VWS V13.01,2013-07-16 01:08:00,
2013-07-15 21:13:00,77.8,73.6,30.08,NW,317,0.0,0.0,87,0.00,,CLR,0.00,VWS V13.01,2013-07-16 01:13:00,
2013-07-15 21:18:00,77.6,73.4,30.07,NW,317,0.0,0.0,87,0.00,,CLR,0.00,VWS V13.01,2013-07-16 01:18:00,
2013-07-15 21:23:00,77.4,73.6,30.08,NW,317,0.0,0.0,88,0.00,,CLR,0.00,VWS V13.01,2013-07-16 01:23:00,
2013-07-15 21:28:00,77.3,73.5,30.08,NW,317,0.0,0.0,88,0.00,,CLR,0.00,VWS V13.01,2013-07-16 01:28:00,
2013-07-15 21:34:00,77.1,73.3,30.08,NW,317,0.0,0.0,88,0.00,,CLR,0.00,VWS V13.01,2013-07-16 01:34:00,
2013-07-15 21:39:00,77.1,73.3,30.08,NW,317,0.0,0.0,88,0.00,,CLR,0.00,VWS V13.01,2013-07-16 01:39:00,
2013-07-15 21:44:00,77.0,73.5,30.08,NW,317,0.0,0.0,89,0.00,,CLR,0.00,VWS V13.01,2013-07-16 01:44:00,
2013-07-15 21:49:00,76.9,73.4,30.08,NW,317,0.0,0.0,89,0.00,,CLR,0.00,VWS V13.01,2013-07-16 01:49:00,
2013-07-15 21:54:00,76.7,73.2,30.08,NW,317,0.0,0.0,89,0.00,,CLR,0.00,VWS V13.01,2013-07-16 01:54:00,
2013-07-15 22:00:00,76.6,73.4,30.09,NW,317,0.0,0.0,90,0.00,,CLR,0.00,VWS V13.01,2013-07-16 02:00:00,
2013-07-15 22:05:00,76.4,73.2,30.09,NW,317,0.0,0.0,90,0.00,,CLR,0.00,VWS V13.01,2013-07-16 02:05:00,
2013-07-15 22:10:00,76.3,73.2,30.08,NW,317,0.0,0.0,90,0.00,,CLR,0.00,VWS V13.01,2013-07-16 02:10:00,
2013-07-15 22:15:00,76.0,72.9,30.08,NW,317,0.0,0.0,90,0.00,,CLR,0.00,VWS V13.01,2013-07-16 02:15:00,
2013-07-15 22:20:00,75.8,73.0,30.08,NW,317,0.0,0.0,91,0.00,,CLR,0.00,VWS V13.01,2013-07-16 02:20:00,
2013-07-15 22:25:00,75.7,72.9,30.08,NW,317,0.0,2.0,91,0.00,,CLR,0.00,VWS V13.01,2013-07-16 02:25:00,
2013-07-15 22:30:00,75.6,72.8,30.09,NW,317,0.0,2.0,91,0.00,,CLR,0.00,VWS V13.01,2013-07-16 02:30:00,
2013-07-15 22:35:00,75.4,72.9,30.08,NW,317,0.0,0.0,92,0.00,,CLR,0.00,VWS V13.01,2013-07-16 02:35:00,
2013-07-15 22:40:00,75.3,72.8,30.08,NW,317,0.0,0.0,92,0.00,,CLR,0.00,VWS V13.01,2013-07-16 02:40:00,
2013-07-15 22:45:00,75.2,72.7,30.08,NW,317,0.0,0.0,92,0.00,,CLR,0.00,VWS V13.01,2013-07-16 02:45:00,
2013-07-15 22:50:00,75.0,72.5,30.08,NW,317,0.0,0.0,92,0.00,,CLR,0.00,VWS V13.01,2013-07-16 02:50:00,
2013-07-15 22:56:00,74.8,72.3,30.08,NW,317,0.0,0.0,92,0.00,,CLR,0.00,VWS V13.01,2013-07-16 02:56:00,
2013-07-15 23:01:00,74.7,72.2,30.09,NW,317,0.0,0.0,92,0.00,,CLR,0.00,VWS V13.01,2013-07-16 03:01:00,
2013-07-15 23:06:00,74.5,72.3,30.09,NW,317,0.0,0.0,93,0.00,,CLR,0.00,VWS V13.01,2013-07-16 03:06:00,
2013-07-15 23:11:00,74.4,72.6,30.08,NW,317,0.0,0.0,94,0.00,,CLR,0.00,VWS V13.01,2013-07-16 03:11:00,
2013-07-15 23:16:00,74.3,72.5,30.09,NW,317,0.0,0.0,94,0.00,,CLR,0.00,VWS V13.01,2013-07-16 03:16:00,
2013-07-15 23:21:00,74.2,72.4,30.09,NW,317,0.0,0.0,94,0.00,,CLR,0.00,VWS V13.01,2013-07-16 03:21:00,
2013-07-15 23:26:00,74.0,71.8,30.09,NW,317,0.0,0.0,93,0.00,,CLR,0.00,VWS V13.01,2013-07-16 03:26:00,
2013-07-15 23:31:00,73.8,72.0,30.09,NW,317,0.0,0.0,94,0.00,,CLR,0.00,VWS V13.01,2013-07-16 03:31:00,
2013-07-15 23:36:00,73.6,71.5,30.09,NW,317,0.0,0.0,93,0.00,,CLR,0.00,VWS V13.01,2013-07-16 03:36:00,
2013-07-15 23:42:00,73.5,71.7,30.09,NW,317,0.0,0.0,94,0.00,,CLR,0.00,VWS V13.01,2013-07-16 03:42:00,
2013-07-15 23:47:00,73.3,71.5,30.09,NW,317,0.0,0.0,94,0.00,,CLR,0.00,VWS V13.01,2013-07-16 03:47:00,
2013-07-15 23:52:00,73.2,71.4,30.09,NW,317,0.0,0.0,94,0.00,,CLR,0.00,VWS V13.01,2013-07-16 03:52:00,
2013-07-15 23:57:00,73.2,71.7,30.09,NW,317,0.0,0.0,95,0.00,,CLR,0.00,VWS V13.01,2013-07-16 03:57:00,